Change the Weather History Date:

Thursday, April 17, 2014

  Actual Average Record
Temperature  
Mean Temperature 54 °F -  
Max Temperature 68 °F 76 °F 95 °F (2006)
Min Temperature 39 °F 51 °F 34 °F (1951)
Degree Days  
Heating Degree Days 12    
Growing Degree Days 4 (Base 50)    
Moisture  
Dew Point 43 °F    
Average Humidity 69    
Maximum Humidity 89    
Minimum Humidity 39    
Precipitation  
Precipitation 0.00 in - - ()
Sea Level Pressure  
Sea Level Pressure 30.20 in    
Wind  
Wind Speed 2 mph (ESE)    
Max Wind Speed 13 mph    
Max Gust Speed 21 mph    
Visibility 10 miles    
Events Rain , Thunderstorm    
Averages and records for this station are not official NWS values.
T = Trace of Precipitation, MM = Missing Value Source: NWS Daily Summary

Daily Weather History Graph

Daily Weather History Graph

Search for Another Location

Airport or City:

Trip Planner

Search our weather history database for the weather conditions in past years. The results will help you decide how hot, cold, wet, or windy it might be!

Date:

Astronomy

Apr. 17, 2014 Rise Set
Actual Time 6:34 AM CDT 7:39 PM CDT
Civil Twilight 6:08 AM CDT 8:05 PM CDT
Nautical Twilight 5:37 AM CDT 8:35 PM CDT
Astronomical Twilight 5:06 AM CDT 9:07 PM CDT
Moon 10:19 PM CDT (4/17) 8:11 AM CDT (4/17)
Length of Visible Light 13h 56m
Length of Day
13h 05m
Waning Gibbous, 93% of the Moon is Illuminated
Apr 17
Waning Gibbous
Apr 22
Last Quarter
Apr 29
New
May 6
First Quarter
May 14
Full

Hourly Weather History & Observations

Time (CDT) Temp. Dew Point Humidity Pressure Visibility Wind Dir Wind Speed Gust Speed Precip Events Conditions
12:53 AM 43.0 °F 37.9 °F 82% 30.17 in 10.0 mi Calm Calm - N/A   Clear
1:53 AM 42.1 °F 37.9 °F 85% 30.17 in 10.0 mi Calm Calm - N/A   Clear
2:53 AM 41.0 °F 37.0 °F 86% 30.17 in 10.0 mi Calm Calm - N/A   Clear
3:53 AM 41.0 °F 37.0 °F 86% 30.18 in 10.0 mi Calm Calm - N/A   Clear
4:53 AM 39.0 °F 36.0 °F 89% 30.18 in 10.0 mi Calm Calm - N/A   Clear
5:53 AM 39.9 °F 36.0 °F 86% 30.19 in 10.0 mi Calm Calm - N/A   Clear
6:53 AM 39.9 °F 37.0 °F 89% 30.21 in 10.0 mi Calm Calm - N/A   Clear
7:53 AM 46.0 °F 41.0 °F 83% 30.23 in - Calm Calm - N/A   Clear
8:53 AM 52.0 °F 42.1 °F 69% 30.25 in 10.0 mi ESE 5.8 mph - N/A   Clear
9:53 AM 59.0 °F 43.0 °F 55% 30.24 in 10.0 mi Variable 3.5 mph - N/A   Clear
12:53 PM 68.0 °F 42.1 °F 39% 30.22 in 10.0 mi SE 12.7 mph 20.7 mph N/A   Mostly Cloudy
1:53 PM 66.9 °F 43.0 °F 42% 30.21 in 10.0 mi ESE 6.9 mph - N/A   Overcast
2:53 PM 66.9 °F 44.1 °F 44% 30.20 in 10.0 mi ESE 8.1 mph - N/A   Scattered Clouds
3:53 PM 66.0 °F 44.1 °F 45% 30.18 in 10.0 mi ESE 6.9 mph - N/A   Clear
4:53 PM 66.0 °F 44.1 °F 45% 30.18 in 10.0 mi SE 8.1 mph - N/A   Clear
5:53 PM 66.0 °F 46.0 °F 48% 30.17 in 10.0 mi East 3.5 mph - N/A   Partly Cloudy
6:53 PM 64.9 °F 46.9 °F 52% 30.18 in 10.0 mi East 3.5 mph - 0.00 in   Scattered Clouds
7:53 PM 63.0 °F 48.9 °F 60% 30.19 in 10.0 mi Calm Calm - N/A   Scattered Clouds
8:53 PM 57.9 °F 50.0 °F 75% 30.20 in 10.0 mi Calm Calm - N/A   Scattered Clouds
9:53 PM 55.0 °F 50.0 °F 83% 30.20 in 10.0 mi Calm Calm - 0.00 in Rain , Thunderstorm Light Rain
10:14 PM 55.4 °F 50.0 °F 82% 30.19 in 10.0 mi Calm Calm - 0.00 in Rain Light Rain
10:53 PM 57.0 °F 51.1 °F 81% 30.19 in 10.0 mi Calm Calm - 0.00 in   Partly Cloudy
11:53 PM 55.0 °F 51.1 °F 86% 30.19 in 10.0 mi Calm Calm - N/A   Clear